Hourly Weather Roundup
Issued by NWS Central Illinois

Home | Current Version | Previous Version | Text Only | Print | Product List | Glossary On
Versions: 1 2 3 4 5 6 7 8 9 10 11 12 13 14 15 16 17 18 19 20 21 22 23 24 25 26 27 28 29 30 31 32 33 34 35 36 37 38 39 40 41 42 43 44 45 46 47 48 49 50
000
NZUS43 KILX 251610
HWRILX

AREA WEATHER ROUNDUP
NATIONAL WEATHER SERVICE, LINCOLN IL
1100 AM CDT MON MAY 25 2015


CITY           SKY/WX    TMP DP  RH WIND       PRES   REMARKS
BLOOMINGTON    CLOUDY    70  64  81 SW21      29.97R
CHAMPAIGN      PTSUNNY   79  59  50 SW28G38   29.99R HX  80
DANVILLE       CLOUDY    76  64  67 SW24G37   29.97R
DECATUR        PTSUNNY   75  62  64 SW23G31   30.00R
EFFINGHAM      PTSUNNY   75  64  67 S12G21    30.05S
FLORA          PTSUNNY   72  67  84 S14       30.07S
GALESBURG      CLOUDY    70  62  76 SW14G23   29.93R
JACKSONVILLE   PTSUNNY   73  64  72 SW14      29.99R
LACON          PTSUNNY   70  63  78 SW14G22   29.91R
LAWRENCEVILLE  CLOUDY    72  66  81 SW15      30.09R
LITCHFIELD     PTSUNNY   73  61  66 SW17      30.03R
$$


CITY           SKY/WX    TMP DP  RH WIND       PRES   REMARKS
LINCOLN        CLOUDY    71  62  71 SW12G22   29.96R
MACOMB         PTSUNNY   70  64  82 SW14G20   29.96R
MATTOON        PTSUNNY   74  65  73 SW15G28   30.02R
MT CARMEL AP   CLOUDY    73  64  73 SW16G22   30.08R
OLNEY-NOBLE AP CLOUDY    72  66  83 S15       30.08R
PARIS          CLOUDY    78  66  66 S24G31    30.03S HX  80
PEORIA         PTSUNNY   73  63  70 SW15G23   29.94R
PONTIAC        CLOUDY    72  67  84 SW24G30   29.93S
RANTOUL        CLOUDY    76  63  62 SW26G35   29.97S
ROBINSON       LGT RAIN  70  67  89 SW14      30.09R
SPRINGFIELD    CLOUDY    73  61  65 SW13G24   30.00R
TAYLORVILLE    PTSUNNY   72  63  73 SW16G25   30.01S
$$

...REGIONAL REPORTS...


CITY           SKY/WX    TMP DP  RH WIND       PRES   REMARKS
CHICAGO O`HARE CLOUDY    68  64  87 SW14      29.87R
KANKAKEE       CLOUDY    76  64  67 SW23G33   29.92S
MOLINE         PTSUNNY   71  61  70 W15       29.88R
MOUNT VERNON   CLOUDY    73  64  73 S15       30.08R
PITTSFIELD     MOSUNNY   73  62  70 SW12      30.00R
QUINCY         PTSUNNY   71  63  75 SW14      29.97R
ROCKFORD       CLOUDY    71  62  73 SW16G23   29.86R
$$


CITY           SKY/WX    TMP DP  RH WIND       PRES   REMARKS
BURLINGTON     CLOUDY    71  65  81 SW20G25   29.92R
CEDAR RAPIDS   CLOUDY    67  65  93 SW15      29.85R
DES MOINES     PTSUNNY   72  61  68 SW13      29.82S
KIRKSVILLE     PTSUNNY   69  63  81 SW9G21    29.93F
OTTUMWA        CLOUDY    70  62  76 SW21G28   29.87S
ST LOUIS       PTSUNNY   77  61  57 S13       30.02S
$$


CITY           SKY/WX    TMP DP  RH WIND       PRES   REMARKS
TERRE HAUTE    PTSUNNY   73  67  81 S16G25    30.06R
EVANSVILLE     PTSUNNY   74  66  76 S15       30.11R
INDIANAPOLIS   CLOUDY    71  63  75 S18       30.06R
LAFAYETTE      CLOUDY    74  63  68 SW15G28   29.99S
MADISON        CLOUDY    69  61  75 VRB7      29.79R
MILWAUKEE      PTSUNNY   72  64  76 SW15G25   29.80S
$$





USA.gov is the U.S. government's official web portal to all federal, state and local government web resources and services.